Location: Newark
(25.0000°N, 73.5000°E)
Time: 00:33:49
(UTC+00:00)

Tiros 1 despin weight - Pass Details

Date: 08 March 2021
Orbit: 593 x 641 km, 48.2° (Epoch: 15 April)

Event Time Altitude Azimuth Distance (km) Brightness Sun altitude
Rises 00:08:50 0° 313° (NW) 2,930 - -17.5°
Reaches altitude 10° 00:11:10 10° 313° (NW) 2,023 - -16.9°
Exits shadow 00:12:36 20° 312° (NW) 1,479 ? -16.6°
Maximum altitude 00:15:50 83° 228° (SW) 647 ? -15.9°
Drops below altitude 10° 00:20:30 10° 138° (SE) 2,019 ? -14.8°
Sets 00:22:49 0° 138° (SE) 2,923 ? -14.3°
